Flag for U.S.A. Weather past 2 weeks in Pensacola, Florida, U.S.A.

Now
50 °F

Clear.


Feels Like: 48 °F
Forecast: 44 / 67 °F
Wind: 5 mph from East

Location: Pensacola Regional Airport

Current Time: Jan 29, 2015 at 12:18:18 AM

Latest Report: Jan 28, 2015 at 11:53 PM


Visibility: 10 mi

Pressure: 30.24 "Hg

Humidity: 83%

Dew point: 45 °F

Location of PensacolaLocation

Historic Weather in Pensacola — Graph

°F

Pensacola temperature yesterday

Maximum temperature yesterday: 64 °F (at 2:53 PM)
Minimum temperature yesterday: 42 °F (at 6:53 AM)
Average temperature yesterday: 51 °F

Past Weeks' High & Low Weather Summary

 TemperatureHumidityPressure
High71 °F (Jan 21, 1:53 PM)100% (Jan 15, 8:53 AM)30.31 "Hg (Jan 15, 8:53 AM)
Low36 °F (Jan 16, 6:53 AM)22% (Jan 18, 2:53 PM)29.79 "Hg (Jan 23, 12:53 PM)
Average52 °F70%30.10 "Hg
* Reported Jan 13 10:53 PM — Jan 28 10:53 PM, Pensacola, Weather by CustomWeather, © 2014

Note: Actual official high and low records may vary slightly from our data, if they occured in-between our weather recording intervals... More about our weather records

Advertising

Pensacola weather history for previous 24 hours

 ConditionsComfort  
Time TempWeatherWind HumidityBarometerVisibility
10:53 PM
Jan 28
49 °FClear.6 mph84%30.24 "Hg10 mi
9:53 PM46 °FClear.No wind83%30.27 "Hg10 mi
8:53 PM47 °FClear.No wind77%30.27 "Hg10 mi
7:53 PM48 °FClear.No wind74%30.28 "Hg10 mi
6:53 PM51 °FClear.No wind63%30.27 "Hg10 mi
5:53 PM51 °FClear.3 mph63%30.26 "Hg10 mi
4:53 PM55 °FClear.9 mph55%30.24 "Hg10 mi
3:53 PM63 °FSunny.3 mph28%30.24 "Hg10 mi
2:53 PM64 °FSunny.8 mph26%30.22 "Hg10 mi
1:53 PM63 °FSunny.5 mph28%30.23 "Hg10 mi
12:53 PM61 °FSunny.8 mph30%30.24 "Hg10 mi
11:53 AM58 °FSunny.7 mph32%30.27 "Hg10 mi
10:53 AM54 °FSunny.6 mph40%30.29 "Hg10 mi
9:53 AM50 °FSunny.3 mph52%30.30 "Hg10 mi
8:53 AM47 °FSunny.5 mph59%30.30 "Hg10 mi
7:53 AM44 °FSunny.9 mph65%30.29 "Hg10 mi
6:53 AM42 °FSunny.7 mph71%30.26 "Hg10 mi
5:53 AM43 °FSunny.6 mph68%30.23 "Hg10 mi
4:53 AM44 °FClear.7 mph65%30.20 "Hg10 mi
3:53 AM45 °FClear.7 mph65%30.19 "Hg10 mi
2:53 AM46 °FClear.8 mph66%30.17 "Hg10 mi
1:53 AM44 °FClear.6 mph68%30.16 "Hg10 mi
12:53 AM48 °FClear.6 mph61%30.16 "Hg10 mi
Weather by CustomWeather, © 2014

See weather overviewHow to use our weather pages